24h Messdaten per 23.10.2020 um 03:37:02

Datum Zeit Luftdruck Temp Balkon Feuchte Balkon Temp Strasse Feuchte Strasse Wind km/h Wind Boe Wind aus (Grad) Regen l/15min Licht Lux Sonne h/Monat
23.10.20 03:37:02 1010 11.0 72
23.10.20 03:32:02 11.1 71
23.10.20 03:27:02 1010 11.1 74
23.10.20 03:22:02 1010 11.1 73
23.10.20 03:17:02 1010 11.3 74
23.10.20 03:12:02 1010
23.10.20 03:07:02 1010 11.2 70
23.10.20 03:02:02 11.6 77
23.10.20 02:57:02 1010 11.9 79
23.10.20 02:52:01 1010
23.10.20 02:47:01 1010 11.8 77
23.10.20 02:42:01 1010 11.4 74 0.0
23.10.20 02:37:01 1010 11.3 74 0.0
23.10.20 02:32:01 1010 11.6 74 0.0
23.10.20 02:27:01 1010 11.5 73 0.0
23.10.20 02:22:01 1010 11.5 74 0.0
23.10.20 02:17:01 1010 11.8 74 0.0
23.10.20 02:12:01 1010 11.7 73 0.0
23.10.20 02:07:01 1010 11.7 73 0.0
23.10.20 02:02:01 1010 11.6 72 0.0
23.10.20 01:57:00 1010 11.4 70 0.0
23.10.20 01:52:00 1010 11.5 71 0.0
23.10.20 01:47:00 1010 11.6 72 0.0
23.10.20 01:42:00 1010 11.8 72 0.0 0.0 67.5 0.0
23.10.20 01:37:01 1010 0.0 0.0 247.5 0.0
23.10.20 01:32:01 1010 11.8 72 0.0 0.0 270 0.0
23.10.20 01:27:01 1010 11.8 72 0.0 0.0 112.5 0.0
23.10.20 01:22:01 1010 11.7 71 0.0 0.0 270 0.0
23.10.20 01:17:01 1010 11.7 71 0.0 0.0 202.5 0.0
23.10.20 01:12:01 1010 11.7 71 0.0 0.0 202.5 0.0
23.10.20 01:07:00 1010 11.8 71 0.0 0.0 247.5 0.0
23.10.20 01:02:00 1010 11.9 71 0.0 0.0 247.5 0.0
23.10.20 00:57:00 1010 11.8 71 0.0 0.0 112.5 0.0
23.10.20 00:52:00 1010 11.8 71 0.0 0.0 135 0.0
23.10.20 00:47:00 1010 11.7 71 0.0 1.4 112.5 0.0
23.10.20 00:42:00 1010 11.6 70 0.0 0.0 180 0.0
23.10.20 00:37:01 1010 11.6 70 0.0 0.0 112.5 0.0
23.10.20 00:32:01 1010 11.6 70 0.0 0.0 45 0.0
23.10.20 00:27:01 1010 11.4 69 0.0 0.0 135 0.0
23.10.20 00:22:01 1010 11.6 69 0.0 0.0 135 0.0
23.10.20 00:17:01 1010 11.6 69 0.0 0.0 157.5 0.0
23.10.20 00:12:01 1010 11.7 70 0.0 0.0 112.5 0.0
23.10.20 00:07:01 1010 11.8 69 0.0 0.0 67.5 0.0
23.10.20 00:02:01 1010 11.8 70 0.0 0.0 135 0.0
22.10.20 23:57:01 1010 12.0 70 0.0 0.0 247.5 0.0
22.10.20 23:52:02 1010 12.2 70 0.0 0.0 270 0.0
22.10.20 23:47:02 1010 12.1 70 0.0 0.0 135 0.0
22.10.20 23:42:01 1010 12.0 69 0.0 0.0 90 0.0
22.10.20 23:37:01 1010 11.9 69 0.0 0.0 67.5 0.0
22.10.20 23:32:01 1010 11.5 69 0.0 0.0 45 0.0
22.10.20 23:27:01 1010 11.8 69 0.0 0.0 112.5 0.0
22.10.20 23:22:01 1010 11.8 69 0.0 0.0 135 0.0
22.10.20 23:17:01 1010 11.9 69 0.0 0.0 112.5 0.0
22.10.20 23:12:01 1010 11.9 69 0.0 0.0 135 0.0
22.10.20 23:07:01 1010 11.8 69 0.0 0.0 270 0.0
22.10.20 23:02:01 1010 11.6 69 0.0 0.0 112.5 0.0
22.10.20 22:57:01 1010 11.3 68 0.0 0.0 135 0.0
22.10.20 22:52:01 1010 11.6 68 0.0 0.0 90 0.0
22.10.20 22:47:01 1010 11.7 68 0.0 0.0 90 0.0
22.10.20 22:42:01 1010 11.9 68 0.0 0.0 337.5 0.0
22.10.20 22:37:01 1010 11.8 68 0.0 0.0 45 0.0
22.10.20 22:32:01 1010 11.8 68 0.0 0.0 112.5 0.0
22.10.20 22:27:01 1010 12.1 68 0.0 0.0 45 0.0
22.10.20 22:22:01 1010 12.2 68 0.0 0.0 135 0.0
22.10.20 22:17:01 1010 12.1 68 0.0 0.0 225 0.0
22.10.20 22:12:01 1010 12.1 68 0.0 0.0 45 0.0
22.10.20 22:07:01 1010 12.2 68 0.0 0.0 225 0.0
22.10.20 22:02:01 1010 12.2 68 0.0 0.0 135 0.0
22.10.20 21:57:01 1010 12.2 68 0.0 0.0 112.5 0.0
22.10.20 21:52:01 1010 12.4 68 0.0 0.0 90 0.0
22.10.20 21:47:01 1010 12.5 68 0.0 0.0 22.5 0.0
22.10.20 21:42:01 1010 12.4 68 0.0 0.0 225 0.0
22.10.20 21:37:01 1010 12.4 68 0.0 0.0 247.5 0.0
22.10.20 21:32:01 1010 12.4 68 0.0 0.0 315 0.0
22.10.20 21:27:01 1010 12.3 68 0.0 0.0 247.5 0.0
22.10.20 21:22:01 1010 12.3 68 0.0 0.0 247.5 0.0
22.10.20 21:17:01 1010 12.2 68 0.0 0.0 247.5 0.0
22.10.20 21:12:01 1010 12.0 68 0.0 0.0 247.5 0.0
22.10.20 21:07:01 1010 12.0 68 0.0 0.0 247.5 0.0
22.10.20 21:02:01 1010 11.9 68 0.0 0.0 22.5 0.0
22.10.20 20:57:01 1010 11.6 67 0.0 0.0 270 0.0
22.10.20 20:52:01 1010 11.5 67 0.0 0.0 157.5 0.7
22.10.20 20:47:01 1010 11.4 67 0.0 0.0 247.5 0.0
22.10.20 20:42:01 1010 0.0 0.0 270 0.0
22.10.20 20:37:01 1010 11.6 66 0.0 0.0 292.5 0.0
22.10.20 20:32:01 1010 11.5 66 0.0 0.0 0 0.0
22.10.20 20:27:01 1010 11.5 65 0.0 0.0 225 0.7
22.10.20 20:22:01 1010 11.5 65 0.0 0.0 270 0.0
22.10.20 20:17:01 1010 11.5 64 0.0 0.0 315 0.0
22.10.20 20:12:01 1010 11.5 63 0.0 0.0 247.5 0.0
22.10.20 20:07:01 1010 11.6 62 0.0 0.0 337.5 0.0
22.10.20 20:02:01 1010 11.7 62 0.0 0.0 112.5 0.0
22.10.20 19:57:01 1010 12.0 62 0.0 0.0 315 0.0
22.10.20 19:52:01 1010 12.5 63 0.0 0.0 270 0.0
22.10.20 19:47:01 1010 12.7 64 0.0 0.0 135 0.0
22.10.20 19:42:01 1010 12.8 63 0.0 0.0 22.5 0.0
22.10.20 19:37:01 1010 12.7 62 0.0 0.0 337.5 0.0
22.10.20 19:32:01 1010 12.8 62 0.0 0.0 67.5 0.0
22.10.20 19:27:01 1010 12.8 61 0.0 0.0 270 0.0
22.10.20 19:22:01 1010 12.9 60 0.0 0.0 90 0.0
22.10.20 19:17:01 1009 12.8 57 0.0 0.0 112.5 0.0
22.10.20 19:12:01 1010 12.8 56 0.0 0.0 22.5 0.0
22.10.20 19:07:01 1010 13.0 55 0.0 0.0 247.5 0.0
22.10.20 19:02:01 1010 13.4 54 0.0 0.0 112.5 0.0
22.10.20 18:57:01 1009 13.5 53 0.0 0.0 67.5 0.0
22.10.20 18:52:01 1009 14.0 51 0.0 0.0 337.5 0.0
22.10.20 18:47:01 1009 14.4 46 0.0 0.0 90 0.0
22.10.20 18:42:01 1009 14.7 42 0.0 0.0 157.5 0.0
22.10.20 18:37:01 1009 0.0 0.0 90 0.0
22.10.20 18:32:01 1009 16.3 35 0.0 0.0 247.5 0.0
22.10.20 18:27:01 1009 16.5 35 0.0 0.0 270 0.7
22.10.20 18:22:01 1009 16.6 33 0.0 0.0 270 0.0
22.10.20 18:17:01 1009 17.0 32 0.0 0.0 270 0.0
22.10.20 18:12:01 1009 17.2 31 0.0 0.0 270 0.0
22.10.20 18:07:01 1009 17.2 31 0.0 0.0 337.5 0.0
22.10.20 18:02:01 1009 17.1 31 0.0 0.0 270 0.0
22.10.20 17:57:01 1008 17.4 31 0.0 0.0 247.5 2.1
22.10.20 17:52:01 1008 17.2 31 0.4 0.0 67.5 1.4
22.10.20 17:47:01 1008 17.6 31 0.7 0.0 247.5 2.1
22.10.20 17:42:01 1008 17.7 30 1.1 0.0 112.5 0.0
22.10.20 17:37:01 1008 17.8 30 1.8 2.2 112.5 0.0
22.10.20 17:32:01 1008 18.0 29 1.4 1.8 90 0.0
22.10.20 17:27:01 1008 18.0 29 0.4 2.2 135 0.0
22.10.20 17:22:01 1008 18.3 28 0.4 0.0 112.5 0.0
22.10.20 17:17:01 1008 18.3 28 1.1 0.0 67.5 0.0
22.10.20 17:12:01 1008 18.5 28 1.8 2.2 67.5 0.0
22.10.20 17:07:01 1008 18.5 28 3.2 4.0 112.5 0.0
22.10.20 17:02:01 1008 18.5 28 2.9 0.0 22.5 0.0
22.10.20 16:57:01 1008 18.5 28 2.5 6.5 67.5 0.0
22.10.20 16:52:01 1009 18.5 29 2.2 0.0 67.5 0.0
22.10.20 16:47:01 1009 18.4 29 1.8 4.0 22.5 0.0
22.10.20 16:42:01 1009 18.6 28 1.1 1.8 22.5 0.0
22.10.20 16:37:01 1009 18.6 28 1.4 2.2 135 0.0
22.10.20 16:32:01 1009 18.8 27 1.1 0.0 90 0.0
22.10.20 16:27:01 18.8 27 0.7 4.7 67.5 0.0
22.10.20 16:22:01 1009 18.6 28 0.7 0.0 135 0.0
22.10.20 16:17:01 1009 18.7 27 1.8 0.0 0 0.0
22.10.20 16:12:01 1009 18.9 27 1.8 2.2 67.5 0.0
22.10.20 16:07:01 1009 18.8 26 2.5 3.2 315 0.0
22.10.20 16:02:01 1009 18.9 27 2.2 0.0 270 0.0
22.10.20 15:57:01 1009 19.0 26 2.5 2.9 90 0.0
22.10.20 15:52:01 1009 19.2 26 1.8 0.0 157.5 0.0
22.10.20 15:47:01 1009 19.4 26 1.4 6.5 112.5 0.0
22.10.20 15:42:01 1009 19.3 25 1.4 0.0 22.5 0.0
22.10.20 15:37:01 1009 19.3 25 1.4 3.2 112.5 0.0
22.10.20 15:32:01 1009 19.6 24 1.1 1.8 135 0.0
22.10.20 15:27:01 1009 19.5 24 1.4 4.3 225 0.0
22.10.20 15:22:01 1009 19.9 24 1.4 0.0 67.5 0.0
22.10.20 15:17:01 1009 19.4 26 2.9 3.6 112.5 0.0
22.10.20 15:12:01 1009 4.3 4.0 112.5 0.0
22.10.20 15:07:01 1009 19.1 25 4.0 6.5 67.5 0.0
22.10.20 15:02:01 1009 19.3 25 2.9 3.6 135 0.0
22.10.20 14:57:01 1009 19.2 25 1.8 9.0 157.5 0.0
22.10.20 14:52:01 1009 18.8 26 1.8 6.1 112.5 0.0
22.10.20 14:47:01 1009 19.1 24 2.9 3.6 135 0.0
22.10.20 14:42:01 19.6 24 3.2 2.9 112.5 0.0
22.10.20 14:37:01 1009 19.8 22 2.9 3.2 67.5 0.0
22.10.20 14:32:01 1009 20.1 22 2.9 6.1 180 0.0
22.10.20 14:27:01 1009 20.3 22 2.9 5.0 112.5 0.0
22.10.20 14:22:01 1009 3.2 4.3 22.5 0.0
22.10.20 14:17:01 1009 19.4 23 4.0 5.0 270 0.0
22.10.20 14:12:01 1009 19.4 23 4.3 6.5 135 0.0
22.10.20 14:07:01 1009 19.1 25 4.7 9.4 112.5 0.0
22.10.20 14:02:01 1009 19.0 24 4.7 7.9 135 0.0
22.10.20 13:57:01 1009 19.3 25 4.3 8.3 112.5 0.0
22.10.20 13:52:01 1009 19.2 25 4.3 7.2 112.5 0.0
22.10.20 13:47:01 1009 19.1 24 4.7 2.9 135 0.0
22.10.20 13:42:01 1009 19.7 21 5.0 4.0 112.5 0.0
22.10.20 13:37:01 1009 19.5 22 5.0 4.7 67.5 0.0
22.10.20 13:32:01 1009 20.3 21 4.7 4.3 90 0.0
22.10.20 13:27:01 1009 20.1 22 4.3 7.2 22.5 0.0
22.10.20 13:22:02 1009 19.8 22 4.3 5.4 112.5 0.0
22.10.20 13:17:02 1009 19.4 25 5.0 9.4 157.5 0.0
22.10.20 13:12:02 1010 18.8 26 4.7 10.1 112.5 0.0
22.10.20 13:07:01 1010 18.8 27 4.0 4.3 135 0.0
22.10.20 13:02:01 1010 18.7 27 4.7 5.4 67.5 0.0
22.10.20 12:57:01 18.4 27 5.4 5.4 180 0.0
22.10.20 12:52:01 1010 18.3 27 5.0 1.8 90 0.0
22.10.20 12:47:01 1010 18.4 27 4.7 5.4 112.5 0.0
22.10.20 12:42:01 1010 18.6 27 5.0 9.7 112.5 0.0
22.10.20 12:37:01 1010 19.0 26 4.0 6.1 90 0.0
22.10.20 12:32:01 1010 18.7 27 4.0 9.7 112.5 0.0
22.10.20 12:27:01 1010 18.4 28 4.7 0.0 90 0.0
22.10.20 12:22:02 1010 18.4 29 5.0 6.1 112.5 0.0
22.10.20 12:17:02 1010 18.5 28 4.7 4.0 135 0.0
22.10.20 12:12:02 1010 18.8 28 4.7 11.9 112.5 0.0
22.10.20 12:07:01 1010 18.8 27 4.7 4.0 135 0.0
22.10.20 12:02:01 1010 18.5 28 4.7 9.0 135 0.0
22.10.20 11:57:01 1010 18.6 26 4.7 2.2 135 0.0
22.10.20 11:52:02 1010 19.0 26 5.8 11.9 157.5 0.0
22.10.20 11:47:02 1010 19.1 26 4.7 6.8 112.5 0.0
22.10.20 11:42:02 1010 4.3 3.6 90 0.0
22.10.20 11:37:01 1010 18.5 27 5.4 9.0 112.5 0.0
22.10.20 11:32:01 1010 18.2 28 5.4 6.8 112.5 0.0
22.10.20 11:27:01 1010 18.8 27 4.7 11.5 90 0.0
22.10.20 11:22:02 1010 18.8 28 4.3 7.6 112.5 0.0
22.10.20 11:17:02 1010 18.0 28 4.0 7.2 112.5 0.0
22.10.20 11:12:02 1010 17.7 29 4.3 6.1 157.5 0.0
22.10.20 11:07:02 1010 17.5 30 5.0 4.7 67.5 0.0
22.10.20 11:02:02 1010 17.7 30 5.0 7.6 90 0.0
22.10.20 10:57:02 1010 17.5 31 5.4 9.0 67.5 0.0
22.10.20 10:52:01 1010 16.8 31 5.8 6.1 67.5 0.0
22.10.20 10:47:01 1010 17.1 32 5.0 6.5 135 0.0
22.10.20 10:42:01 1010 16.4 32 4.7 6.8 157.5 0.0
22.10.20 10:37:02 1010 16.5 32 4.7 5.0 112.5 0.0
22.10.20 10:32:02 1010 16.6 32 4.0 10.1 67.5 0.0
22.10.20 10:27:02 1010 16.3 32 2.5 9.0 90 0.0
22.10.20 10:22:02 1010 16.1 33 2.2 4.7 225 0.0
22.10.20 10:17:02 1010 15.6 34 2.2 7.6 112.5 0.0
22.10.20 10:12:02 1010 15.6 34 4.7 10.1 112.5 0.0
22.10.20 10:07:02 1010 15.9 34 4.7 10.1 112.5 0.0
22.10.20 10:02:02 1010 15.3 36 4.3 10.8 135 0.0
22.10.20 09:57:02 1010 15.1 36 3.6 5.0 45 0.0
22.10.20 09:52:01 1010 15.3 35 4.0 2.9 337.5 0.0
22.10.20 09:47:01 1010 15.2 36 2.9 6.1 112.5 0.0
22.10.20 09:42:01 1009 15.1 37 1.4 6.1 67.5 0.0
22.10.20 09:37:01 1009 14.7 38 0.7 0.0 135 0.0
22.10.20 09:32:01 1009 14.2 40 1.1 0.0 45 0.0
22.10.20 09:27:01 1009 14.1 41 1.8 0.0 270 0.0
22.10.20 09:22:01 1009 13.8 40 2.2 4.0 22.5 0.0
22.10.20 09:17:01 1009 14.1 40 4.0 6.8 135 0.0
22.10.20 09:12:01 1009 14.1 40 3.6 4.3 180 0.0
22.10.20 09:07:02 1009 14.1 39 1.8 6.1 135 0.0
22.10.20 09:02:02 1009 14.4 39 1.4 0.0 22.5 0.0
22.10.20 08:57:02 1009 1.8 2.5 135 0.0
22.10.20 08:52:02 1009 14.5 39 2.2 2.9 45 0.0
22.10.20 08:47:02 1009 14.6 39 3.6 4.0 67.5 0.0
22.10.20 08:42:02 1008 3.2 4.0 112.5 0.0
22.10.20 08:37:02 1008 14.4 39 3.2 2.9 135 0.0
22.10.20 08:32:02 1008 14.8 39 4.0 2.9 157.5 0.0
22.10.20 08:27:02 1008 14.9 38 5.4 11.5 67.5 0.0
22.10.20 08:22:02 1008 14.9 38 5.0 2.9 112.5 0.0
22.10.20 08:17:02 14.8 38 3.2 4.0 67.5 0.0
22.10.20 08:12:02 1008 2.2 5.8 67.5 0.0
22.10.20 08:07:01 1008 14.6 40 2.2 0.0 67.5 0.0
22.10.20 08:02:01 1008 14.5 40 2.2 2.9 247.5 0.0
22.10.20 07:57:01 1008 14.3 40 3.2 3.6 135 0.0
22.10.20 07:52:02 1008 14.6 39 4.0 4.3 180 0.0
22.10.20 07:47:02 1008 14.7 38 3.6 5.4 135 0.0
22.10.20 07:42:02 1008 14.8 38 2.5 3.2 135 0.0
22.10.20 07:37:01 1008 14.5 39 1.1 6.1 135 0.0
22.10.20 07:32:01 1008 14.7 38 0.7 2.9 67.5 0.0
22.10.20 07:27:01 1008 14.8 38 0.7 1.8 135 0.0
22.10.20 07:22:02 1008 14.8 39 1.4 0.0 90 0.0
22.10.20 07:17:02 1008 14.8 39 1.4 1.8 135 0.0
22.10.20 07:12:02 1008 14.5 39 1.8 0.0 180 0.0
22.10.20 07:07:03 1008 14.3 39 2.9 1.4 292.5 0.0
22.10.20 07:02:03 1008 14.6 39 2.9 4.7 180 0.0
22.10.20 06:57:03 1008 14.5 39 2.9 2.9 135 0.0
22.10.20 06:52:02 1008 14.7 38 3.2 0.0 112.5 0.0
22.10.20 06:47:02 1008 14.6 39 2.5 3.2 22.5 0.0
22.10.20 06:42:02 1008 14.3 39 2.9 9.0 112.5 0.0
22.10.20 06:37:03 1008 14.5 39 3.2 4.3 112.5 0.0
22.10.20 06:32:03 1008 14.3 40 3.6 7.2 135 0.0
22.10.20 06:27:03 1008 3.2 4.3 90 0.0
22.10.20 06:22:02 1008 14.4 40 3.6 5.0 112.5 0.0
22.10.20 06:17:02 1008 14.3 40 4.0 6.8 90 0.0
22.10.20 06:12:02 1008 14.5 39 2.5 6.1 135 0.0
22.10.20 06:07:02 1008 14.5 39 1.8 3.2 135 0.0
22.10.20 06:02:02 1008 14.3 40 1.4 2.2 157.5 0.0
22.10.20 05:57:02 1008 14.1 41 1.4 2.9 67.5 0.0
22.10.20 05:52:02 1008 14.1 41 2.2 6.5 90 0.0
22.10.20 05:47:02 1008 13.9 42 2.9 5.4 112.5 0.0
22.10.20 05:42:02 1008 14.0 42 2.2 2.2 157.5 0.0
22.10.20 05:37:02 1008 13.9 44 1.4 1.8 337.5 0.0
22.10.20 05:32:02 1008 13.2 47 2.2 4.7 112.5 0.0
22.10.20 05:27:02 1008 12.8 57 2.2 4.0 112.5 0.0
22.10.20 05:22:02 1008 12.7 61 2.2 4.7 135 0.0
22.10.20 05:17:02 1008 12.3 61 1.4 2.5 135 0.0
22.10.20 05:12:02 1008 12.4 64 0.7 3.2 112.5 0.0
22.10.20 05:07:02 1008 12.1 64 1.1 0.0 315 0.0
22.10.20 05:02:02 1008 11.7 63 1.8 4.0 112.5 0.0
22.10.20 04:57:02 1008 11.3 62 2.5 2.9 180 0.0
22.10.20 04:52:02 1008 11.4 62 1.8 8.3 90 0.0
22.10.20 04:47:02 1008 11.5 63 1.4 1.8 135 0.0
22.10.20 04:42:02 1008 11.0 61 1.8 0.0 225 0.0
22.10.20 04:37:02 1008 11.0 60 1.4 3.2 112.5 0.0
22.10.20 04:32:02 1008 1.1 2.9 45 0.0
22.10.20 04:27:02 1008 10.7 58 1.1 1.8 180 0.0
22.10.20 04:22:02 1008 10.7 57 1.4 0.0 337.5 0.0
22.10.20 04:17:02 1008 10.8 56 1.4 2.9 135 0.0
22.10.20 04:12:02 1008 10.9 56 2.2 2.5 270 0.0
22.10.20 04:07:02 1008 11.0 56 1.8 0.0 112.5 0.0
22.10.20 04:02:02 1008 10.9 55 1.4 3.6 180 0.0
22.10.20 03:57:02 1008 11.2 54 1.4 2.9 112.5 0.0
22.10.20 03:52:03 1008 11.1 53 1.1 3.6 135 0.0
22.10.20 03:47:02 1008 2.2 2.5 225 0.0
22.10.20 03:42:02 1008 11.1 51 2.2 4.0 247.5 0.0
22.10.20 03:37:02 1008 11.5 50 1.4 6.8 112.5 0.0
Index
© 2002-2012 Thomas Dreßler
Alle Rechte vorbehalten
letzte Scriptänderung 12.11.2012